| time (UTC) | temp F | wind direction | speed knots | gust knots | rain 1hr in | rain 24hr in | rain mn in | humidity % | barometer mb |
| 20260503200510 | 58 | 248 | 5.2 | 16.5 | 0.00 | 0.00 | 0.00 | 1 | 1013.2 |
| 20260503200010 | 58 | 183 | 7.0 | 13.9 | 0.00 | 0.00 | 0.00 | 1 | 1013.2 |
| 20260503195758 | 58 | 233 | 6.1 | 13.0 | 0.00 | 0.00 | 0.00 | 1 | 1013.2 |
| 20260503195011 | 58 | 245 | 3.5 | 11.3 | 0.00 | 0.00 | 0.00 | 1 | 1013.1 |
| 20260503194756 | 58 | 298 | 3.5 | 12.2 | 0.00 | 0.00 | 0.00 | 1 | 1013.2 |
| 20260503194011 | 59 | 237 | 4.3 | 13.9 | 0.00 | 0.00 | 0.00 | 1 | 1013.3 |
| 20260503193835 | 59 | 278 | 3.5 | 12.2 | 0.00 | 0.00 | 0.00 | 1 | 1013.2 |
| 20260503193829 | 59 | 220 | 7.8 | 13.9 | 0.00 | 0.00 | 0.00 | 1 | 1013.2 |
| 20260503192510 | 59 | 195 | 4.3 | 15.6 | 0.00 | 0.00 | 0.00 | 1 | 1013.2 |
| 20260503192011 | 60 | 165 | 7.8 | 15.6 | 0.00 | 0.00 | 0.00 | 1 | 1013.2 |
| 20260503191510 | 60 | 340 | 6.1 | 14.8 | 0.00 | 0.00 | 0.00 | 1 | 1013.2 |
| 20260503191009 | 60 | 276 | 5.2 | 14.8 | 0.00 | 0.00 | 0.00 | 1 | 1013.1 |
| 20260503190510 | 60 | 186 | 6.1 | 13.9 | 0.00 | 0.00 | 0.00 | 1 | 1013.2 |
| 20260503190010 | 60 | 175 | 7.8 | 12.2 | 0.00 | 0.00 | 0.00 | 1 | 1013.2 |
| 20260503185510 | 59 | 193 | 6.1 | 12.2 | 0.00 | 0.00 | 0.00 | 1 | 1013.3 |
| 20260503185009 | 59 | 180 | 7.8 | 12.2 | 0.00 | 0.00 | 0.00 | 1 | 1013.2 |
| 20260503184509 | 59 | 179 | 6.1 | 12.2 | 0.00 | 0.00 | 0.00 | 1 | 1013.2 |
| 20260503184008 | 59 | 207 | 6.1 | 12.2 | 0.00 | 0.00 | 0.00 | 1 | 1013.1 |
| 20260503183509 | 59 | 135 | 2.6 | 12.2 | 0.00 | 0.00 | 0.00 | 1 | 1013.2 |
| 20260503183007 | 58 | 175 | 6.1 | 12.2 | 0.00 | 0.00 | 0.00 | 1 | 1013.1 |
| 20260503182751 | 58 | 207 | 5.2 | 12.2 | 0.00 | 0.00 | 0.00 | 1 | 1013.1 |
| 20260503182255 | 58 | 227 | 5.2 | 9.6 | 0.00 | 0.00 | 0.00 | 1 | 1013.1 |
| 20260503181507 | 58 | 274 | 3.5 | 15.6 | 0.00 | 0.00 | 0.00 | 1 | 1013.1 |
| 20260503181007 | 58 | 13 | 3.5 | 15.6 | 0.00 | 0.00 | 0.00 | 1 | 1013.0 |
| 20260503180750 | 57 | 244 | 6.1 | 13.9 | 0.00 | 0.00 | 0.00 | 1 | 1013.1 |
| 20260503180252 | 57 | 276 | 2.6 | 10.4 | 0.00 | 0.00 | 0.00 | 1 | 1012.9 |
| 20260503175508 | 56 | 113 | 3.5 | 11.3 | 0.00 | 0.00 | 0.00 | 1 | 1012.9 |
| 20260503175007 | 55 | 296 | 2.6 | 13.0 | 0.00 | 0.00 | 0.00 | 1 | 1013.0 |
| 20260503174506 | 55 | 0 | 7.0 | 15.6 | 0.00 | 0.00 | 0.00 | 1 | 1013.0 |
| 20260503174255 | 56 | 0 | 4.3 | 15.6 | 0.00 | 0.00 | 0.00 | 1 | 1013.0 |
| 20260503173507 | 56 | 357 | 3.5 | 14.8 | 0.00 | 0.00 | 0.00 | 1 | 1013.0 |
| 20260503173007 | 55 | 0 | 4.3 | 13.0 | 0.00 | 0.00 | 0.00 | 1 | 1013.0 |
| 20260503172507 | 55 | 203 | 6.1 | 13.0 | 0.00 | 0.00 | 0.00 | 1 | 1013.0 |
| 20260503172006 | 55 | 0 | 9.6 | 13.0 | 0.00 | 0.00 | 0.00 | 1 | 1013.0 |
| 20260503171506 | 55 | 231 | 6.1 | 10.4 | 0.00 | 0.00 | 0.00 | 1 | 1013.0 |
| 20260503171248 | 55 | 214 | 7.0 | 11.3 | 0.00 | 0.00 | 0.00 | 1 | 1012.9 |
| 20260503170506 | 55 | 195 | 6.1 | 11.3 | 0.00 | 0.00 | 0.00 | 1 | 1013.0 |
| 20260503150503 | 52 | 244 | 3.5 | 6.1 | 0.00 | 0.00 | 0.00 | 1 | 1012.3 |
| 20260503130959 | 52 | 230 | 3.5 | 9.6 | 0.00 | 0.00 | 0.00 | 1 | 1010.9 |
| 20260503130459 | 51 | 269 | 5.2 | 9.6 | 0.00 | 0.00 | 0.00 | 1 | 1010.8 |
| 20260503110458 | 52 | 345 | 2.6 | 11.3 | 0.00 | 0.00 | 0.00 | 1 | 1010.9 |
| 20260503090455 | 52 | 14 | 4.3 | 16.5 | 0.00 | 0.00 | 0.00 | 1 | 1011.2 |
| 20260503081454 | 52 | 32 | 3.5 | 12.2 | 0.00 | 0.00 | 0.00 | 1 | 1011.7 |
| 20260503080954 | 52 | 298 | 3.5 | 13.0 | 0.00 | 0.00 | 0.00 | 1 | 1011.7 |
| 20260503080453 | 51 | 282 | 3.5 | 14.8 | 0.00 | 0.00 | 0.00 | 1 | 1011.8 |
| 20260503072453 | 52 | 278 | 4.3 | 13.9 | 0.00 | 0.00 | 0.00 | 1 | 1011.6 |
| 20260503071951 | 52 | 127 | 4.3 | 13.9 | 0.00 | 0.00 | 0.00 | 1 | 1011.6 |
| 20260503071452 | 52 | 252 | 4.3 | 13.0 | 0.00 | 0.00 | 0.00 | 1 | 1011.6 |
| 20260503070951 | 52 | 281 | 3.5 | 15.6 | 0.00 | 0.00 | 0.00 | 1 | 1011.7 |
| 20260503070452 | 52 | 261 | 4.3 | 15.6 | 0.00 | 0.00 | 0.00 | 1 | 1011.7 |
| 20260503054949 | 52 | 320 | 3.5 | 16.5 | 0.00 | 0.00 | 0.00 | 1 | 1012.0 |
| 20260503054449 | 52 | 345 | 5.2 | 16.5 | 0.00 | 0.00 | 0.00 | 1 | 1011.9 |
| 20260503053948 | 52 | 109 | 3.5 | 13.0 | 0.00 | 0.00 | 0.00 | 1 | 1012.0 |
| 20260503053450 | 52 | 63 | 4.3 | 17.4 | 0.00 | 0.00 | 0.00 | 1 | 1012.2 |
| 20260503053234 | 52 | 274 | 7.8 | 20.9 | 0.00 | 0.00 | 0.00 | 1 | 1012.1 |
| 20260503052528 | 52 | 271 | 6.1 | 22.6 | 0.00 | 0.00 | 0.00 | 1 | 1012.1 |
| 20260503052515 | 52 | 269 | 7.8 | 20.9 | 0.00 | 0.00 | 0.00 | 1 | 1012.1 |
| 20260503051449 | 52 | 350 | 7.0 | 22.6 | 0.00 | 0.00 | 0.00 | 1 | 1012.1 |
| 20260503050949 | 52 | 275 | 8.7 | 18.2 | 0.00 | 0.00 | 0.00 | 1 | 1011.9 |
| 20260503050449 | 52 | 52 | 6.1 | 17.4 | 0.00 | 0.00 | 0.00 | 1 | 1012.0 |
| 20260503045949 | 52 | 250 | 4.3 | 20.0 | 0.00 | 0.00 | 0.00 | 1 | 1012.1 |
| 20260503045734 | 52 | 135 | 3.5 | 20.0 | 0.00 | 0.00 | 0.00 | 1 | 1012.0 |
| 20260503044949 | 52 | 338 | 7.0 | 16.5 | 0.00 | 0.00 | 0.00 | 1 | 1012.1 |
| 20260503044447 | 52 | 69 | 7.0 | 16.5 | 0.00 | 0.00 | 0.00 | 1 | 1012.0 |
| 20260503043948 | 52 | 264 | 6.1 | 16.5 | 0.00 | 0.00 | 0.00 | 1 | 1012.0 |
| 20260503043447 | 52 | 0 | 7.8 | 20.9 | 0.00 | 0.00 | 0.00 | 1 | 1012.0 |
| 20260503042948 | 52 | 0 | 9.6 | 20.9 | 0.00 | 0.00 | 0.00 | 1 | 1011.8 |
| 20260503042447 | 52 | 355 | 5.2 | 18.2 | 0.00 | 0.00 | 0.00 | 1 | 1011.9 |
| 20260503041948 | 52 | 326 | 7.0 | 18.2 | 0.00 | 0.00 | 0.00 | 1 | 1011.9 |
| 20260503041534 | 52 | 305 | 6.1 | 17.4 | 0.00 | 0.00 | 0.00 | 1 | 1011.9 |
| 20260503041517 | 52 | 305 | 4.3 | 17.4 | 0.00 | 0.00 | 0.00 | 1 | 1011.9 |
| 20260503040448 | 52 | 358 | 4.3 | 15.6 | 0.00 | 0.00 | 0.00 | 1 | 1011.9 |
| 20260503035948 | 52 | 207 | 7.0 | 15.6 | 0.00 | 0.00 | 0.00 | 1 | 1011.8 |
| 20260503035448 | 52 | 38 | 5.2 | 16.5 | 0.00 | 0.00 | 0.00 | 1 | 1011.8 |
| 20260503034948 | 52 | 285 | 4.3 | 16.5 | 0.00 | 0.00 | 0.00 | 1 | 1011.9 |
| 20260503034448 | 52 | 334 | 2.6 | 16.5 | 0.00 | 0.00 | 0.00 | 1 | 1011.8 |
| 20260503033947 | 52 | 269 | 6.1 | 18.2 | 0.00 | 0.00 | 0.00 | 1 | 1011.8 |
| 20260503033448 | 52 | 257 | 7.8 | 20.0 | 0.00 | 0.00 | 0.00 | 1 | 1011.7 |
| 20260503032947 | 52 | 10 | 6.1 | 20.9 | 0.00 | 0.00 | 0.00 | 1 | 1011.5 |
| 20260503032732 | 52 | 258 | 10.4 | 20.9 | 0.00 | 0.00 | 0.00 | 1 | 1011.5 |
| 20260503032234 | 52 | 0 | 7.8 | 22.6 | 0.00 | 0.00 | 0.00 | 1 | 1011.4 |
| 20260503031735 | 52 | 73 | 8.7 | 22.6 | 0.00 | 0.00 | 0.00 | 1 | 1011.3 |
| 20260503030947 | 52 | 282 | 10.4 | 20.0 | 0.00 | 0.00 | 0.00 | 1 | 1011.2 |
| 20260503030524 | 52 | 52 | 8.7 | 22.6 | 0.00 | 0.00 | 0.00 | 1 | 1011.1 |
| 20260503030511 | 52 | 288 | 5.2 | 22.6 | 0.00 | 0.00 | 0.00 | 1 | 1011.1 |
| 20260503025446 | 53 | 286 | 7.8 | 24.3 | 0.00 | 0.00 | 0.00 | 1 | 1011.1 |
| 20260503024947 | 53 | 330 | 7.0 | 24.3 | 0.00 | 0.00 | 0.00 | 1 | 1011.1 |
| 20260503024447 | 53 | 282 | 8.7 | 20.9 | 0.00 | 0.00 | 0.00 | 1 | 1011.1 |
| 20260503023947 | 53 | 307 | 7.8 | 20.9 | 0.00 | 0.00 | 0.00 | 1 | 1011.0 |
| 20260503023445 | 53 | 6 | 7.8 | 19.1 | 0.00 | 0.00 | 0.00 | 1 | 1011.0 |
| 20260503022945 | 53 | 269 | 7.0 | 18.2 | 0.00 | 0.00 | 0.00 | 1 | 1011.2 |
| 20260503022445 | 53 | 286 | 6.1 | 15.6 | 0.00 | 0.00 | 0.00 | 1 | 1011.2 |
| 20260503021946 | 53 | 283 | 3.5 | 23.5 | 0.00 | 0.00 | 0.00 | 1 | 1011.1 |
| 20260503021445 | 53 | 296 | 5.2 | 23.5 | 0.00 | 0.00 | 0.00 | 1 | 1011.1 |
| 20260503020947 | 53 | 73 | 7.8 | 20.0 | 0.00 | 0.00 | 0.00 | 1 | 1011.2 |
| 20260503020445 | 53 | 258 | 6.1 | 19.1 | 0.00 | 0.00 | 0.00 | 1 | 1011.2 |
| 20260503020233 | 53 | 266 | 10.4 | 22.6 | 0.00 | 0.00 | 0.00 | 1 | 1011.3 |
| 20260503015445 | 53 | 248 | 4.3 | 22.6 | 0.00 | 0.00 | 0.00 | 1 | 1011.3 |
| 20260503014945 | 53 | 343 | 7.8 | 20.0 | 0.00 | 0.00 | 0.00 | 1 | 1011.3 |
| 20260503014733 | 54 | 0 | 7.0 | 20.0 | 0.00 | 0.00 | 0.00 | 1 | 1011.3 |
| 20260503013945 | 54 | 10 | 4.3 | 19.1 | 0.00 | 0.00 | 0.00 | 1 | 1011.2 |
| 20260503013444 | 54 | 0 | 5.2 | 19.1 | 0.00 | 0.00 | 0.00 | 1 | 1011.3 |
| 20260503012945 | 54 | 340 | 4.3 | 20.0 | 0.00 | 0.00 | 0.00 | 1 | 1011.4 |
| 20260503012446 | 54 | 271 | 7.8 | 20.0 | 0.00 | 0.00 | 0.00 | 1 | 1011.4 |
| 20260503011944 | 54 | 75 | 7.0 | 19.1 | 0.00 | 0.00 | 0.00 | 1 | 1011.6 |
| 20260503011446 | 54 | 0 | 5.2 | 19.1 | 0.00 | 0.00 | 0.00 | 1 | 1011.5 |
| 20260503011232 | 54 | 83 | 5.2 | 17.4 | 0.00 | 0.00 | 0.00 | 1 | 1011.6 |
| 20260503010444 | 54 | 283 | 4.3 | 18.2 | 0.00 | 0.00 | 0.00 | 1 | 1011.5 |
| 20260503005945 | 54 | 92 | 5.2 | 19.1 | 0.00 | 0.00 | 0.00 | 1 | 1011.4 |
| 20260503005443 | 54 | 259 | 7.8 | 19.1 | 0.00 | 0.00 | 0.00 | 1 | 1011.6 |
| 20260503004943 | 54 | 293 | 8.7 | 18.2 | 0.00 | 0.00 | 0.00 | 1 | 1011.5 |
| 20260503004444 | 55 | 16 | 5.2 | 17.4 | 0.00 | 0.00 | 0.00 | 1 | 1011.5 |
| 20260503003945 | 55 | 199 | 7.8 | 20.9 | 0.00 | 0.00 | 0.00 | 1 | 1011.5 |
| 20260503003445 | 55 | 271 | 8.7 | 20.9 | 0.00 | 0.00 | 0.00 | 1 | 1011.7 |
| 20260503002944 | 55 | 278 | 7.8 | 18.2 | 0.00 | 0.00 | 0.00 | 1 | 1011.7 |
| 20260503002444 | 55 | 0 | 6.1 | 18.2 | 0.00 | 0.00 | 0.00 | 1 | 1011.6 |
| 20260503001943 | 55 | 300 | 5.2 | 18.2 | 0.00 | 0.00 | 0.00 | 1 | 1011.7 |
| 20260503001444 | 55 | 275 | 6.1 | 20.9 | 0.00 | 0.00 | 0.00 | 1 | 1011.7 |
| 20260503000944 | 55 | 286 | 12.2 | 20.9 | 0.00 | 0.00 | 0.00 | 1 | 1011.8 |
| 20260503000442 | 55 | 353 | 7.0 | 18.2 | 0.00 | 0.00 | 0.00 | 1 | 1011.8 |
| 20260502235943 | 55 | 250 | 7.8 | 18.2 | 0.00 | 0.00 | 0.00 | 1 | 1011.8 |
| 20260502235443 | 55 | 0 | 4.3 | 22.6 | 0.00 | 0.00 | 0.00 | 1 | 1011.8 |
| 20260502234942 | 55 | 243 | 11.3 | 23.5 | 0.00 | 0.00 | 0.00 | 1 | 1011.8 |
| 20260502234443 | 56 | 271 | 9.6 | 23.5 | 0.00 | 0.00 | 0.00 | 1 | 1011.9 |
| 20260502233943 | 56 | 248 | 10.4 | 20.9 | 0.00 | 0.00 | 0.00 | 1 | 1011.9 |
| 20260502233728 | 55 | 34 | 3.5 | 22.6 | 0.00 | 0.00 | 0.00 | 1 | 1011.9 |
| 20260502232942 | 55 | 314 | 7.8 | 22.6 | 0.00 | 0.00 | 0.00 | 1 | 1012.0 |
| 20260502232442 | 55 | 202 | 11.3 | 19.1 | 0.00 | 0.00 | 0.00 | 1 | 1012.0 |
| 20260502231940 | 56 | 0 | 5.2 | 19.1 | 0.00 | 0.00 | 0.00 | 1 | 1012.1 |
| 20260502231722 | 55 | 281 | 6.1 | 20.9 | 0.00 | 0.00 | 0.00 | 1 | 1012.2 |
| 20260502230940 | 55 | 313 | 10.4 | 20.9 | 0.00 | 0.00 | 0.00 | 1 | 1012.3 |
| 20260502230441 | 55 | 97 | 7.8 | 20.9 | 0.00 | 0.00 | 0.00 | 1 | 1012.3 |
| 20260502225940 | 55 | 250 | 9.6 | 22.6 | 0.00 | 0.00 | 0.00 | 1 | 1012.4 |
| 20260502225441 | 56 | 0 | 7.0 | 22.6 | 0.00 | 0.00 | 0.00 | 1 | 1012.6 |
| 20260502224941 | 56 | 241 | 8.7 | 20.9 | 0.00 | 0.00 | 0.00 | 1 | 1012.5 |
| 20260502224440 | 56 | 34 | 6.1 | 20.9 | 0.00 | 0.00 | 0.00 | 1 | 1012.6 |
| 20260502223939 | 57 | 233 | 7.0 | 15.6 | 0.00 | 0.00 | 0.00 | 1 | 1012.8 |
| 20260502223439 | 56 | 300 | 4.3 | 16.5 | 0.00 | 0.00 | 0.00 | 1 | 1012.8 |
| 20260502222939 | 56 | 245 | 7.8 | 19.1 | 0.00 | 0.00 | 0.00 | 1 | 1012.8 |
| 20260502222439 | 56 | 241 | 5.2 | 20.9 | 0.00 | 0.00 | 0.00 | 1 | 1012.9 |
| 20260502221940 | 56 | 254 | 9.6 | 20.9 | 0.00 | 0.00 | 0.00 | 1 | 1013.1 |
| 20260502221439 | 56 | 259 | 5.2 | 20.9 | 0.00 | 0.00 | 0.00 | 1 | 1013.1 |
| 20260502220938 | 56 | 247 | 7.0 | 20.9 | 0.00 | 0.00 | 0.00 | 1 | 1013.2 |
| 20260502220439 | 56 | 0 | 4.3 | 14.8 | 0.00 | 0.00 | 0.00 | 1 | 1013.2 |
| 20260502215938 | 56 | 305 | 4.3 | 13.9 | 0.00 | 0.00 | 0.00 | 1 | 1013.2 |
| 20260502215438 | 56 | 0 | 2.6 | 15.6 | 0.00 | 0.00 | 0.00 | 1 | 1013.2 |
| 20260502214939 | 56 | 237 | 9.6 | 15.6 | 0.00 | 0.00 | 0.00 | 1 | 1013.2 |
| 20260502214438 | 56 | 282 | 5.2 | 15.6 | 0.00 | 0.00 | 0.00 | 1 | 1013.2 |
| 20260502213939 | 56 | 238 | 8.7 | 18.2 | 0.00 | 0.00 | 0.00 | 1 | 1013.3 |
| 20260502213727 | 56 | 262 | 8.7 | 20.0 | 0.00 | 0.00 | 0.00 | 1 | 1013.2 |
| 20260502213225 | 56 | 269 | 7.8 | 20.0 | 0.00 | 0.00 | 0.00 | 1 | 1013.2 |
| 20260502212724 | 57 | 286 | 5.2 | 14.8 | 0.00 | 0.00 | 0.00 | 1 | 1013.3 |
| 20260502211937 | 56 | 278 | 4.3 | 20.9 | 0.00 | 0.00 | 0.00 | 1 | 1013.3 |
| 20260502211438 | 56 | 276 | 7.8 | 20.9 | 0.00 | 0.00 | 0.00 | 1 | 1013.2 |
| 20260502211226 | 56 | 27 | 8.7 | 24.3 | 0.00 | 0.00 | 0.00 | 1 | 1013.4 |
| 20260502210438 | 56 | 313 | 7.8 | 24.3 | 0.00 | 0.00 | 0.00 | 1 | 1013.4 |
| 20260502205937 | 56 | 0 | 3.5 | 24.3 | 0.00 | 0.00 | 0.00 | 1 | 1013.5 |
| 20260502205438 | 56 | 265 | 9.6 | 24.3 | 0.00 | 0.00 | 0.00 | 1 | 1013.6 |
| 20260502204938 | 56 | 202 | 5.2 | 17.4 | 0.00 | 0.00 | 0.00 | 1 | 1013.6 |
| 20260502204437 | 56 | 333 | 5.2 | 18.2 | 0.00 | 0.00 | 0.00 | 1 | 1013.6 |
| 20260502203937 | 56 | 186 | 7.8 | 19.1 | 0.00 | 0.00 | 0.00 | 1 | 1013.7 |
| 20260502203438 | 56 | 251 | 10.4 | 19.1 | 0.00 | 0.00 | 0.00 | 1 | 1013.6 |
| 20260502202936 | 57 | 298 | 8.7 | 16.5 | 0.00 | 0.00 | 0.00 | 1 | 1013.7 |
| 20260502202436 | 56 | 23 | 4.3 | 19.1 | 0.00 | 0.00 | 0.00 | 1 | 1013.6 |
| 20260502201937 | 56 | 314 | 9.6 | 19.1 | 0.00 | 0.00 | 0.00 | 1 | 1013.8 |
| 20260502201437 | 56 | 271 | 6.1 | 19.1 | 0.00 | 0.00 | 0.00 | 1 | 1013.8 |
| 20260502200937 | 56 | 37 | 7.0 | 19.1 | 0.00 | 0.00 | 0.00 | 1 | 1013.7 |